Torna al catalogo

DELTA 1 DEB

AttivoSSO
NORAD 13566·DEBRIS·🇺🇸 United States

Lanciato Mar 5, 1978 da Vandenberg Space Force Base

Loading…

Prossimi Passaggi (prossime 24 ore)

TLE

AggiornatoSource: Space-Track

Epoca: Sep 14, 2026, 01:11 UTC

1 13566U 78026FD  26257.04962250  .00000625  00000-0  22468-3 0  9992
2 13566  98.6596 296.3275 0033918 135.4673 254.7926 14.36976956298373

Traccia DELTA 1 DEB in tempo reale con AllMySat

Download on the App Store